Weather in Jaroslaw

Poland     50°02′37″N   22°40′10″E
temp.,
°C
wind,
m/s
gust,
m/s
humid.,
%
clouds,
%
prec.,
mm/h
press.,
hPa
HPBL,
m
27 july, tue
tue2723:00+21ssw11751 0.0 101413
02:00+18s3488100 1.5 101461
05:00+19sse33855 2.1 101329
08:00+25ssw311675 2.2 1013461
11:00+30wsw79435 0.0 10131688
14:00+30w684510 0.0 10132092
17:00+28nw455267 0.0 1012828
20:00+20sw348597 3.1 101452
28 july, wed
wed2823:00+20wsw2287100 0.3 101527
02:00+19s11896 0.5 101511
05:00+18sse229023 0.0 101425
08:00+23se35768 0.0 1014230
11:00+29sse35505 0.0 10131248
14:00+32wsw611340 0.0 10112988
17:00+29wnw59471 0.0 1009871
20:00+25w34698 0.0 101050
29 july, thu
thu2923:00+20w34900 0.9 101264
02:00+19wnw479667 0.9 1012185
05:00+18wnw489876 0.0 1013250
08:00+21wnw458438 0.2 1014490
11:00+25nw446267 0.1 10141282
14:00+27wnw335393 0.3 10131671
17:00+26w345978 0.0 1013921
20:00+22ssw33720 0.0 101329
30 july, fri
fri3023:00+20sw23770 0.0 101325
02:00+18s11810 0.0 101311
05:00+17sse22840 0.0 101213
08:00+23se34651 0.0 1011264
11:00+28s224553 0.0 10111046
14:00+29wnw444225 0.0 10091742
17:00+21sse4690100 2.6 1010193
20:00+19sse22890 2.7 101023
31 july, sat
sat3123:00+17s33920 0.0 101045
02:00+17ssw229042 0.0 101017
05:00+17w119113 0.0 101011
08:00+21wsw017688 0.0 1010218
11:00+25se3358100 0.0 1009748
14:00+29sw344217 0.0 10081554
17:00+29w3444100 0.0 10081312
20:00+19wsw1290100 9.6 101060